DELTA 1 DEB, 7083

Orbit data source: Space-Track

DELTA 1 DEB, 7083 is space debris in SSO originally from a launch on Tue, 06 Nov 1973 UTC launched from the Air Force Western Test Range (AFWTR). Debris objects in space refer to the collection of defunct objects orbiting the Earth. Examples of debris include non-operational satellites, rocket bodies, and fragments generated from explosions, collisions, or faulty payload assembly.

Loading next visibility...
Identifier
7083, 1973-086CB
Orbit
SSO
Country
Flag of USUS
Related business
Manufacturer
Unknown
Mission
Spacecraft
Bus & Motor
Unknown
Mass
Unknown
Launch date (UTC)
1973-11-06 (52 years ago)
Launch vehicle
Unknown
Launch site
Air Force Western Test Range (AFWTR)
Object type
Payload
Rocket body
Debris
Shape & HBR
Unknown shape, 0.1 m
Radar Cross Section
Small (<0.1 m²)

Expand to show TLE details & history
Last TLE update: 1 day ago

TLE from 1 day ago
0 DELTA 1 DEB
1 07083U 73086CB  25354.49761825  .00000030  00000-0  61872-3 0  9993
2 07083 102.4546   1.9317 0065918 157.1624   0.6994 12.32575536341957
Epoch: 2025-12-20T11:56Z
TLE epoch observation values (Epoch: 2025-12-20T11:56:34.216Z)
Latitude
21.59519°
Longitude
-81.54363°
Altitude
1,488.334 km
Speed
7.145 km/s
True Right ascension
12h 27m 41s
True Declination
21° 29' 19"
Sunlit
Object was in daylight at epoch
Visualization orbit readout
Latitude
Unknown
Longitude
Unknown
Altitude
Unknown
Speed
Unknown
Apparent Right ascension
Unknown
Apparent Declination
Unknown
Sunlit
N/A
Visualization observer readout
Local Sidereal Time
18:22:04
Azimuth
Unknown
Elevation
Unknown
Doppler factor
Unknown
Orbital elements
Apogee altitude
1,588.013 km
Perigee altitude
1,483.678 km
Semi-major axis
7,913.983 km
Eccentricity
0.00659
Inclination
102.4546°
RAAN
1.9317°
Arg. of periapsis
157.1624°
True anomaly
0.7087°
Mean anomaly
0.6994°
Eccentric anomaly
0.70404°
Mean motion
3.08284 °/min
Orbital period
116.78 mins
BSTAR
0.00061872
Loading maneuver chart data...
Computing Atmospheric mass density...
Loading historical data...
Loading historical data...
Loading historical data...
Loading historical data...
Loading historical data...
Loading historical data...
Loading historical data...

Documentation

Showing up to 5 results
|